Shelton, WA

12:28 AM PDT on May 24, 2017 (GMT -0700)
Sanderson

Weather History for KSHN - January, 2013

Change the Weather History Date:

Saturday, January 5, 2013

  Actual Average Record
Temperature  
Mean Temperature 40 °F -  
Max Temperature 43 °F 42 °F 55 °F (1990)
Min Temperature 37 °F 31 °F 14 °F (2017)
Degree Days  
Heating Degree Days 25    
Moisture  
Dew Point 39 °F    
Average Humidity 97    
Maximum Humidity 100    
Minimum Humidity 93    
Precipitation  
Precipitation 0.11 in - - ()
Sea Level Pressure  
Sea Level Pressure 30.14 in    
Wind  
Wind Speed 2 mph (West)    
Max Wind Speed 9 mph    
Max Gust Speed -    
Visibility 9 miles    
Events Rain    
Averages and records for this station are not official NWS values.
T = Trace of Precipitation, MM = Missing Value Source: NWS Daily Summary

Daily Weather History Graph

Daily Weather History Graph

Search for Another Location

Airport or City:

Trip Planner

Search our weather history database for the weather conditions in past years. The results will help you decide how hot, cold, wet, or windy it might be!

Date:

Astronomy

Jan. 05, 2013 Rise Set
Actual Time 7:58 AM PST 4:37 PM PST
Civil Twilight 7:23 AM PST 5:13 PM PST
Nautical Twilight 6:45 AM PST 5:51 PM PST
Astronomical Twilight 6:08 AM PST 6:28 PM PST
Moon 12:57 AM PST (1/5) 11:42 AM PST (1/5)
Length of Visible Light 9h 49m
Length of Day
8h 38m
Last Quarter, 43% of the Moon is Illuminated
Jan 5
Last Quarter
Jan 11
New
Jan 18
First Quarter
Jan 26
Full
Feb 3
Last Quarter

Hourly Weather History & Observations

Time (PST) Temp. Windchill Dew Point Humidity Pressure Visibility Wind Dir Wind Speed Gust Speed Precip Events Conditions
12:16 AM 37.4 °F - 37.4 °F 100% 30.14 in 4.0 mi Calm Calm - N/A   Overcast
12:31 AM 37.4 °F - 37.4 °F 100% 30.14 in 8.0 mi Calm Calm - N/A   Overcast
12:43 AM 37.4 °F - 37.4 °F 100% 30.14 in 4.0 mi Calm Calm - N/A   Overcast
12:53 AM 37.0 °F - 37.0 °F 100% 30.16 in 4.0 mi Calm Calm - N/A   Overcast
1:03 AM 37.4 °F - 37.4 °F 100% 30.14 in 8.0 mi Calm Calm - N/A   Overcast
1:53 AM 37.0 °F - 37.0 °F 100% 30.16 in 10.0 mi Calm Calm - N/A   Overcast
2:30 AM 37.4 °F - 37.4 °F 100% 30.14 in 10.0 mi Calm Calm - N/A   Overcast
2:53 AM 37.0 °F 34.5 °F 37.0 °F 100% 30.16 in 10.0 mi Variable 3.5 mph - N/A   Overcast
3:03 AM 37.4 °F 33.8 °F 37.4 °F 100% 30.15 in 10.0 mi SW 4.6 mph - N/A   Overcast
3:53 AM 37.0 °F - 37.0 °F 100% 30.16 in 10.0 mi Calm Calm - N/A   Overcast
4:53 AM 37.9 °F - 37.9 °F 100% 30.16 in 10.0 mi Calm Calm - N/A   Overcast
5:53 AM 39.9 °F 35.8 °F 39.9 °F 100% 30.12 in 10.0 mi NNE 5.8 mph - 0.01 in Rain Light Rain
6:53 AM 39.0 °F - 39.0 °F 100% 30.14 in 10.0 mi Calm Calm - 0.01 in Rain Light Rain
7:29 AM 39.2 °F 34.2 °F 39.2 °F 100% 30.12 in 10.0 mi East 6.9 mph - 0.00 in Rain Light Rain
7:53 AM 39.9 °F - 39.9 °F 100% 30.16 in 10.0 mi Calm Calm - 0.00 in   Overcast
8:53 AM 39.9 °F 35.8 °F 39.9 °F 100% 30.17 in 10.0 mi NNE 5.8 mph - 0.01 in   Overcast
9:45 AM 41.0 °F 37.1 °F 39.2 °F 93% 30.17 in 10.0 mi North 5.8 mph - N/A   Overcast
9:53 AM 41.0 °F 38.0 °F 39.9 °F 96% 30.18 in 10.0 mi NNE 4.6 mph - N/A   Overcast
10:53 AM 42.1 °F 40.2 °F 41.0 °F 96% 30.18 in 10.0 mi NNE 3.5 mph - N/A   Mostly Cloudy
11:53 AM 42.1 °F 40.2 °F 41.0 °F 96% 30.17 in 10.0 mi North 3.5 mph - N/A   Overcast
12:53 PM 43.0 °F 40.3 °F 41.0 °F 93% 30.14 in 10.0 mi North 4.6 mph - N/A   Overcast
1:53 PM 43.0 °F - 41.0 °F 93% 30.13 in 10.0 mi Calm Calm - N/A   Overcast
2:53 PM 43.0 °F - 41.0 °F 93% 30.13 in 10.0 mi Calm Calm - N/A   Overcast
3:53 PM 43.0 °F - 42.1 °F 97% 30.13 in 10.0 mi Calm Calm - N/A   Overcast
4:53 PM 42.1 °F - 41.0 °F 96% 30.11 in 10.0 mi Calm Calm - N/A   Overcast
5:02 PM 39.2 °F - 39.2 °F 100% 30.10 in 10.0 mi Calm Calm - N/A   Overcast
5:53 PM 39.9 °F - 39.9 °F 100% 30.11 in 8.0 mi Calm Calm - N/A   Overcast
6:53 PM 39.9 °F - 39.9 °F 100% 30.12 in 10.0 mi Calm Calm - 0.04 in Rain Light Rain
7:19 PM 39.2 °F - 39.2 °F 100% 30.10 in 10.0 mi Calm Calm - 0.01 in Rain Light Rain
7:26 PM 39.2 °F - 39.2 °F 100% 30.11 in 10.0 mi Calm Calm - 0.02 in Rain Light Rain
7:41 PM 41.0 °F - 39.2 °F 93% 30.11 in 10.0 mi Calm Calm - 0.02 in Rain Light Rain
7:53 PM 41.0 °F - 39.9 °F 96% 30.12 in 10.0 mi Calm Calm - 0.02 in Rain Light Rain
8:22 PM 41.0 °F 36.4 °F 39.2 °F 93% 30.11 in 10.0 mi WSW 6.9 mph - 0.01 in Rain Light Rain
8:53 PM 39.9 °F - 39.0 °F 97% 30.12 in 10.0 mi Calm Calm - 0.02 in Rain Light Rain
9:48 PM 41.0 °F 37.1 °F 39.2 °F 93% 30.11 in 10.0 mi WSW 5.8 mph - 0.00 in   Overcast
9:53 PM 41.0 °F 37.1 °F 39.9 °F 96% 30.13 in 10.0 mi WSW 5.8 mph - 0.00 in   Overcast
9:56 PM 41.0 °F 38.0 °F 39.2 °F 93% 30.11 in 10.0 mi SW 4.6 mph - N/A   Overcast
10:29 PM 41.0 °F 35.2 °F 39.2 °F 93% 30.12 in 10.0 mi SW 9.2 mph - N/A   Overcast
10:53 PM 39.9 °F 36.7 °F 39.0 °F 97% 30.13 in 10.0 mi WSW 4.6 mph - N/A   Mostly Cloudy
11:11 PM 39.2 °F 37.0 °F 37.4 °F 93% 30.13 in 10.0 mi WSW 3.5 mph - N/A   Mostly Cloudy
11:25 PM 39.2 °F 37.0 °F 39.2 °F 100% 30.13 in 10.0 mi SW 3.5 mph - N/A   Mostly Cloudy
11:53 PM 39.9 °F 35.1 °F 39.0 °F 97% 30.14 in 10.0 mi SSW 6.9 mph - N/A   Overcast